Погода в Тамбове

Поиск расширенной информации на нашем сайте:

Полезная информация:

Новости сайта



02.01.2020
Опубликован Долгосрочный прогноз погоды по городам России и ближнего зарубежья на январь 2020 года.
Карты: Прогноз на январь и февраль 2020 года, Сравнение прогнозируемой аномалии приземной температуры воздуха на январь 2020 года по разным моделям.




Погода в Тамбове - сегодня

Время (UTC), дата Ветер
(°,м/с) 
Видим.   Явления Облачность Т
(°С)
Тd
(°С)
f(%) Тe
(°С)
Pmin
(гПа)
dP
(гПа)
Po
(мм)
O2
(г/м3)
Тmin Tmax R s Состояние
почвы
18 24.01.20 210 (ЮЗ) 7-11{12}  4800 м  слаб. снег  10/10 300 м 
[Ns]
-1.5 -2.9 90 -6  1005.8  -2.4  742  301           
21 24.01.20 220 (ЮЗ) 7-10{11}  2500 м  снег  10/10 270 м 
[Ns]
-0.8 -2.1 91 -5  1003.1  -2.6  740  299           
00 25.01.20 230 (ЮЗ) 6{11}  5000 м  слаб. снег  10/10 300 м 
[Ns]
+0.2 -0.6 94 -3  1002  -1.1  739  298           
03 25.01.20 250 (З) 7{11}  9000 м  слаб. дождь{снег}  10/10 300 м 
[Ns]
+1 -0.1 92 -3  1001  -0.9  738  296  -2.6    равномерный
мокрый или
старый снег
100% 
06 25.01.20 250 (З) 6{10}  10 км  {дождь}  10/10 540 м 
[Sc]
+1.3 -0.1 90 -2  1001.3  0.3  739  296           
09 25.01.20 250 (З) 6{10}  10 км  {дождь}  10/10 360 м 
[Sc]
+1.5 -0.2 88 -2  1001.5  0.2  739  296           
12 25.01.20 240 (ЮЗ) 5{10}  10 км  {дождь}  10/10 360 м 
[Sc]
+1.7 -0.2 87 -1  1000.5  -1  738  296           
15 25.01.20 240 (ЮЗ) 8-12{11}  10 км    10/10 450 м 
[Sc]
+1.7 -0.8 83 -2  999.4  -1.1  737  295    +2  0.0     
18 25.01.20 250 (З) 8-11{14}  10 км  {дождь}  8/6 600 м верхняя 
[Sc|Ci sp]
+1.6 -0.6 85 -2  997.9  -1.4  736  295           
21 25.01.20 300 (СЗ) 8-11{17}  10 км    8/6 800 м верхняя 
[Sc|Ci sp]
+0.2 -3.1 78 -4  1000.2  2.1  738  297           
00 26.01.20 280 (З) 8-12{12}  10 км    5/0 верхняя 
[Ci sp]
-0.8 -4.6 75 -5  1002.5  2.3  740  299           
03 26.01.20 280 (З) 7-10{12}  10 км    10/10 1380 м 
[Sc]
-1.3 -5 76 -5  1005.1  2.5  741  301  -1.5    0.0  равномерный
мокрый или
старый снег
100% 
06 26.01.20 290 (З) 7{11}  10 км    8/8 1200 м 
[Sc]
-1.7 -5.8 74 -6  1008.6  3.4  744  302  -1.8         
09 26.01.20 290 (З) 10 км    8/8 1200 м 
[Sc]
-0.9 -5.5 71 -5  1011.7  3.2  746  302           
12 26.01.20 290 (З) 10 км    10/10 1000 м 
[Sc]
-0.5 -6.1 66 -4  1013.4  1.6  748  302           
15 26.01.20 220 (ЮЗ) 10 км    9/0 средняя 
[Ac trans]
-3.8 -7.9 73 -3  1014.7  748  307    -0.5       
18 26.01.20 230 (ЮЗ) 10 км    10/0 средняя 
[Ac und]
-2.7 -6.1 77 -7  1013.7  -0.8  748  305           
21 26.01.20 230 (ЮЗ) 10 км    10/0 средняя 
[Ac und]
-1.8 -4.6 81 -5  1012  -1.7  746  303           
00 27.01.20 250 (З) 10-11{13}  10 км  {снег}  10/10 480 м 
[Sc]
+0.5 -3.7 73 -4  1009.6  -2.2  745  300           
03 27.01.20 260 (З) 8-10{14}  10 км    10/10 630 м 
[Sc]
+1 -1.9 81 -3  1009.2  -0.3  745  299  -3.8    0.0  равномерный
мокрый или
старый снег
100% 
06 27.01.20 240 (ЮЗ) 5{13}  10 км    10/10 540 м 
[Sc]
+1.4 -0.8 85 -1  1010.8  1.5  746  299           
09 27.01.20 250 (З) 7-10{11}  10 км    9/9 1080 м 
[Sc]
+2.3 -0.7 81 -1  1011.7  0.9  746  298           
12 27.01.20 260 (З) 4{11}  10 км    10/10 500 м 
[Sc]
+2.3 -0.5 82 1013.3  1.6  748  299           
15 27.01.20 300 (СЗ) 10 км  {морось}  10/10 660 м 
[Sc]
+0.7 -0.4 92 1015.5  2.1  749  301    +2.8  0.0     
18 27.01.20 350 (С) 10 км  {морось}  10/10 800 м 
[Sc]
+0 -2.7 82 +1  1016.9  1.3  750  303           
Время (UTC), дата Ветер
(°,м/с) 
Видим.   Явления Облачность Т
(°С)
Тd
(°С)
f(%) Тe
(°С)
Pmin
(гПа)
dP
(гПа)
Po
(мм)
O2
(г/м3)
Тmin Tmax R s Состояние
почвы

Для получения пояснительной информации подведите курсор к названию столбца.

ПОГОДА в Тамбове - архив

Всё, что Вы хотите узнать о погоде в Тамбове - удобно и подробно!

Выберите нужную дату (начиная с 1 января 2019* года) и нажмите кнопку "Найти".
Будут отображены архивные сводки погоды по пункту Тамбов, начиная с указанной даты.


Отображать данные в формате CSV (для использования в таблицах Excel)


Внимание! Наш архив погоды предназначен исключительно для личного некоммерческого использования в познавательных целях. Если Вам необходимы официальные справки о состоянии погоды (для производственных, юридических, коммерческих и т.п. целей), обращайтесь в органы Росгидромета.

*Примечание: данная дата относится к архиву по метеостанциям СССР (Россия, СНГ, Балтия).
Архив по метеостанциям Зарубежной Европы и Азии (кроме Китая) хранится 10 дней, по другим регионам земного шара (Китай, Африка, Америка, Австралия, Океания) - 1 день.

Тамбов - район местоположения метеостанции


Название, широта, долгота, высота метеостанции:
Тамбов 52.8°ш. 41.3°д. 128 м над ур. моря [Российская Федерация]

Дополнительная информация

В oтличие oт бoльшинства пoгoдных сайтoв мы публикуем пoдрoбную метеoинфoрмацию в детальнoм прoфессиoнальнoм фoрмате.

Характеристики температуры и влажнoсти вoздуха измеряются на высoте 2 м в тени вдали oт зданий и деревьев.
Скoрoсть ветра измеряется на высoте 10 м (на урoвне рoста челoвека скoрoсть ветра ниже в 1.5-2 раза). Если метеoстанция нахoдится в гoрoде или в лесу, тo скoрoсть ветра занижена на 2-4 м/с пo сравнению с oткрытым местoм. Скoрoсть ветра над акватoриями крупных рек и oзёр, а также на вершинах хoлмoв на 2-5 м/с выше, чем в oбычных услoвиях.
Атмoсфернoе давление в разных тoчках местнoсти мoжет значительнo oтличаться oт давления на метеoстанции, в зависимoсти oт услoвий рельефа (при пoдъёме на 10 м давление пoнижается примернo на 1 мм рт.ст.).